Regional Weather Roundup
Issued by NWS Sterling, VA

Home | Current Version | Previous Version | Graphics & Text | Print | Product List | Glossary On
Versions: 1 2 3 4 5 6 7 8 9 10 11 12 13 14 15 16 17 18 19 20 21 22 23 24 25 26 27 28 29 30 31 32 33 34 35 36 37 38 39 40 41 42 43 44 45 46 47 48 49 50
827
ASUS41 KLWX 270411
RWRLWX

REGIONAL WEATHER ROUNDUP
NATIONAL WEATHER SERVICE BALTIMORE MD/WASHINGTON DC
1200 AM EDT TUE SEP 27 2016

Note: "FAIR" indicates few or no clouds below 12,000 feet
with no significant weather and/or obstructions to visibility.
 TC=TEMPERATURE CELSIUS

 * =Non NWS site. Station does not report precipitation (e.g. rain,
    snow, etc.), thunder, or fog.

DCZ001-MDZ009-015-VAZ040>042-051-053>054-270500-
WASHINGTON METRO

CITY           SKY/WX    TMP DP  RH WIND       PRES   REMARKS
WASHINGTON NAT CLOUDY    66  65  96 S9        29.98F
DULLES         CLOUDY    64  62  93 S6        29.97F
ANDREWS AFB    CLOUDY    64  62  93 S5        29.97F
FT BELVOIR     CLOUDY    65  63  94 CALM      29.97F
QUANTICO       MOCLDY    68  64  87 SW8       29.98F
COLLEGE PARK*  MOCLDY    63  61  94 CALM      29.97F
LEESBURG*      CLOUDY    64  64 100 S6        29.98F
MANASSAS*      CLOUDY    64  64 100 S3        29.97F
GAITHERSBURG*  CLOUDY    64  59  82 S6        30.01F

$$

MDZ006>007-011-014-270500-
BALTIMORE METRO

CITY           SKY/WX    TMP DP  RH WIND       PRES   REMARKS
BWI AIRPORT    CLOUDY    64  60  87 CALM      29.97F
MD SCIENCE CTR   N/A     67  59  75 MISG      29.98F
ANNAPOLIS      CLOUDY    67  62  84 S7        29.97F
FORT MEADE*    CLOUDY    61  59  94 S3        29.99F

$$

MDZ012-015-019>023-270500-
MARYLAND EASTERN SHORE

CITY           SKY/WX    TMP DP  RH WIND       PRES   REMARKS
OCEAN CITY     LGT RAIN  74  68  81 SW13      30.01F
SALISBURY      CLOUDY    66  65  96 CALM      30.01F
BAY BRIDGE AP* CLOUDY    68  63  83 MISG      29.98S
CAMBRIDGE*     MOCLDY    68  64  88 S3        29.98F

$$

MDZ017>025-270500-
SOUTHERN MARYLAND

CITY           SKY/WX    TMP DP  RH WIND       PRES   REMARKS
PATUXENT RIVER CLOUDY    68  62  81 S6        29.98F
ST INIGOES     CLOUDY    72  63  73 S8        29.98F
LEONARDTOWN*   CLOUDY    66  61  82 CALM      30.00F

$$

MDZ003>005-270500-
NORTH CENTRAL MARYLAND

CITY           SKY/WX    TMP DP  RH WIND       PRES   REMARKS
FREDERICK*     NOT AVBL
HAGERSTOWN APT CLOUDY    64  62  93 CALM      29.97R FOG

$$

MDZ501>502-270500-
WESTERN MARYLAND

CITY           SKY/WX    TMP DP  RH WIND       PRES   REMARKS
OAKLAND*       CLOUDY    54  54 100 W7        30.05S FOG
CUMBERLAND*    CLOUDY    64  64 100 CALM      30.01S

$$

VAZ025>031-270500-
SHENANDOAH VALLEY

CITY           SKY/WX    TMP DP  RH WIND       PRES   REMARKS
WINCHESTER*    CLOUDY    64  63  94 CALM      29.97S
FRONT ROYAL*   MOCLDY    64  63  94 SW7       29.96S
LURAY*         RAIN     N/A N/A N/A S3        29.99S
NEW MARKET*    CLOUDY   N/A N/A N/A SW5       29.98F
STAUNTON*      CLOUDY    63  62  97 CALM      30.02S
WAYNESBORO*    CLOUDY    63  62  96 CALM      30.01S

$$

WVZ021-048>050-054>055-270500-
EASTERN WEST VIRGINIA PANHANDLE

CITY           SKY/WX    TMP DP  RH WIND       PRES   REMARKS
MARTINSBURG    CLOUDY    64  63  96 NW6       29.97R
PETERSBURG*    CLOUDY    66  65  97 NE5       29.98S

$$

VAZ036>039-050-270500-
CENTRAL FOOTHILLS

CITY           SKY/WX    TMP DP  RH WIND       PRES   REMARKS
CHARLOTTESVILL CLOUDY    67  64  90 CALM      29.98F
CULPEPER*      CLOUDY    65  65  98 CALM      29.99S
ORANGE*          N/A     64  64 100 CALM      30.00F
GORDONSVILLE*  CLOUDY    64  64 100 CALM      29.98F
WARRENTON*     MOCLDY    65  61  85 CALM      29.97F

$$

VAZ055>057-270500-
NORTH AND CENTRAL PIEDMONT

CITY           SKY/WX    TMP DP  RH WIND       PRES   REMARKS
FREDERICKSBRG* CLOUDY    66  66 100 S5        29.97F
STAFFORD*      MOCLDY    64  64  99 S3        30.01F

$$

NCZ024-NYZ072-PAZ021-071-VAZ022-071-270500-
OTHER REGIONAL OBSERVATIONS

CITY           SKY/WX    TMP DP  RH WIND       PRES   REMARKS
NEW YORK CITY  CLOUDY    68  58  70 VRB5      30.01F
PHILADELPHIA   CLOUDY    70  60  70 S9        29.97F
PITTSBURGH     MOCLDY    57  56  96 W5        30.01R
ROANOKE        CLOUDY    67  66  97 SE5       30.03F FOG
RICHMOND       TSTM      66  65  96 S7        29.99F
RALEIGH        LGT RAIN  72  68  87 S8        30.04F

$$

ANZ530>537-270500-
MARINE OBSERVATIONS

STATION/POSITION TIME  TEMP    WIND        PRES
                       AIR SEA DIR/SP/G
                 (UTC) (F)     (DEG/KT/KT) (MB)
THOMAS PT LIGHT  0400   68 74  220/ 13/ 14 1016.4R
BALT KEY BRIDGE  0348   67     200/  6/  8 1014.9F
COVE POINT       0348   70     200/ 12/ 17 1015.8F
LEWISETTA        0348   71 74  220/  8/ 10 1015.2F
SOLOMONS ISLAND  0348   70 75  170/  5/  6   N/A
PINEY POINT      0348          220/ 12/ 13   N/A

$$





USA.gov is the U.S. government's official web portal to all federal, state and local government web resources and services.